DateTimeUTC,F1_A11,F1_S11,BsB_S11,BsG_S11,BsR_S11,BbsB_S11,BbsG_S11,BbsR_S11,BaB_A11,BaG_A11,BaR_A11,Tu_S11,T_S11,Uu_S11,U_S11,P_S11,T1_A11
2021-01-05T02:00:00Z,00000200,21000000,,,,,,,0000.12,0000.05,-000.03,15.3,22.6,,00.0,0637.1,30.8
2021-01-05T02:01:00Z,00000200,21000000,,,,,,,-000.24,-000.03,0000.20,15.3,22.6,,00.0,0637.1,30.8
2021-01-05T02:02:00Z,00000200,21000000,,,,,,,-000.03,-000.49,-000.63,15.4,22.6,,00.0,0637.1,30.8
2021-01-05T02:03:00Z,00000200,61000000,,,,,,,-000.45,0000.08,-000.06,15.4,22.6,,00.0,0637.1,30.8
2021-01-05T02:04:00Z,00000200,41000000,0000.48,0000.51,0000.39,0000.21,0000.02,0000.12,0000.13,-000.08,0000.31,15.8,22.5,,00.0,0637.9,30.8
2021-01-05T02:05:00Z,00000200,01000000,0000.83,0000.44,0000.18,0000.41,0000.17,-000.03,-000.23,0000.06,-000.09,15.8,22.4,,00.0,0637.9,30.7
2021-01-05T02:06:00Z,00000200,01000000,0000.09,0000.40,0000.25,0000.58,0000.03,0000.18,0000.23,-000.22,0000.05,15.7,22.4,,00.0,0637.8,30.7
2021-01-05T02:07:00Z,00000200,01000000,-000.10,0000.22,0000.32,0000.02,0000.23,0000.24,-000.06,0000.40,-000.16,15.6,22.4,,00.0,0637.8,30.7
2021-01-05T02:08:00Z,00000200,01000000,0000.57,0000.44,0000.29,0000.16,0000.13,0000.37,-000.12,-000.17,-000.05,15.6,22.3,,00.0,0637.9,30.7
2021-01-05T02:09:00Z,00000200,01000000,0000.05,0000.58,0000.18,0000.07,0000.15,0000.03,0000.09,-000.14,0000.06,15.5,22.3,,00.0,0637.9,30.7
2021-01-05T02:10:00Z,00000200,01000000,0000.40,0000.33,0000.29,0000.17,-000.25,-000.06,0000.29,0000.21,0000.20,15.5,22.3,,00.0,0637.8,30.7
2021-01-05T02:11:00Z,00000200,01000000,-000.17,0000.17,0000.39,0000.05,-000.08,0000.03,0000.26,0000.25,0000.28,15.5,22.3,,00.0,0637.8,30.7
2021-01-05T02:12:00Z,00000200,01000000,0000.28,0000.36,0000.35,0000.58,-000.12,0000.11,0000.26,0000.09,0000.05,15.6,22.3,,00.0,0637.8,30.7
2021-01-05T02:13:00Z,00000200,01000000,0000.42,0000.52,0000.18,0000.18,-000.09,0000.07,0000.03,0000.45,0000.13,15.7,22.3,,00.0,0637.9,30.7
2021-01-05T02:14:00Z,00000200,01000000,-000.19,0000.42,0000.14,0000.49,0000.08,-000.03,0000.11,-000.00,0000.24,15.7,22.4,,00.0,0637.9,30.8
2021-01-05T02:15:00Z,00000200,01000000,0000.28,0000.37,0000.16,-000.46,0000.20,0000.00,-000.17,-000.07,-000.00,15.8,22.4,,00.0,0637.9,30.8
2021-01-05T02:16:00Z,00000200,01000000,0000.27,0000.14,0000.06,0000.09,0000.16,0000.22,0000.27,0000.10,0000.04,15.8,22.4,,00.0,0637.9,30.8
2021-01-05T02:17:00Z,00000200,01000000,0000.58,0000.51,0000.25,0000.14,0000.09,0000.24,-000.09,0000.44,-000.02,15.9,22.4,,00.0,0638.0,30.8
2021-01-05T02:18:00Z,00000200,01000000,-000.26,0000.63,0000.38,0000.23,-000.05,0000.01,-000.23,-000.36,0000.04,15.9,22.4,,00.0,0638.0,30.8
2021-01-05T02:19:00Z,00000200,01000000,0000.63,0000.24,0000.27,0000.06,0000.08,-000.00,0000.12,0000.14,-000.31,15.9,22.4,,00.0,0638.1,30.8
2021-01-05T02:20:00Z,00000200,01000000,0000.88,0000.06,0000.19,0000.30,0000.05,-000.01,0000.20,-000.06,0000.14,15.8,22.4,,00.0,0638.1,30.8
2021-01-05T02:21:00Z,00000200,01000000,0000.45,0000.51,0000.11,0000.48,0000.22,0000.11,-000.06,-000.04,-000.06,15.8,22.4,,00.0,0638.2,30.7
2021-01-05T02:22:00Z,00000200,01000000,0000.53,0000.29,0000.27,0000.37,0000.23,0000.20,-000.09,0000.08,0000.14,15.7,22.4,,00.0,0638.2,30.7
2021-01-05T02:23:00Z,00000200,01000000,0000.56,0000.47,0000.33,0000.49,-000.08,-000.01,0000.08,-000.36,-000.26,15.6,22.3,,00.0,0638.3,30.7
2021-01-05T02:24:00Z,00000200,01000000,0000.52,0000.24,0000.12,-000.08,-000.12,0000.22,-000.35,-000.32,0000.16,15.6,22.3,,00.0,0638.3,30.7
2021-01-05T02:25:00Z,00000200,01000000,0000.42,0000.43,0000.27,0000.47,0000.14,0000.09,0000.08,0000.32,0000.05,15.6,22.2,,00.0,0638.3,30.7
2021-01-05T02:26:00Z,00000200,01000000,0000.24,0000.21,0000.28,0000.38,0000.17,0000.15,0000.16,0000.18,-000.31,15.6,22.2,,00.0,0638.2,30.7
2021-01-05T02:27:00Z,00000200,01000000,-000.13,0000.46,0000.22,0000.55,0000.19,0000.01,-000.20,0000.16,0000.35,15.6,22.3,,00.0,0638.2,30.7
2021-01-05T02:28:00Z,00000200,01000000,0000.46,-000.11,0000.48,0000.26,0000.15,0000.10,0000.15,-000.23,-000.03,15.7,22.3,,00.0,0638.3,30.7
2021-01-05T02:29:00Z,00000200,01000000,0000.90,0000.39,0000.02,0000.51,0000.14,0000.18,-000.25,-000.04,-000.10,15.8,22.3,,00.0,0638.3,30.8
2021-01-05T02:30:00Z,00000200,01000000,0000.82,0000.17,0000.31,0000.59,0000.07,0000.13,0000.03,-000.15,0000.23,15.8,22.4,,00.0,0638.3,30.8
2021-01-05T02:31:00Z,00000200,01000000,0001.13,0000.25,0000.19,-000.11,0000.08,0000.21,-000.17,0000.04,-000.29,15.9,22.4,,00.0,0638.3,30.8
2021-01-05T02:32:00Z,00000200,01000000,0001.26,0000.29,0000.12,0000.47,0000.13,0000.43,0000.09,-000.46,-000.43,15.9,22.4,,00.0,0638.3,30.8
2021-01-05T02:33:00Z,00000200,01000000,0000.89,0000.45,0000.51,0000.51,-000.13,0000.01,0000.03,0000.17,-000.03,15.9,22.4,,00.0,0638.3,30.7
2021-01-05T02:34:00Z,00000200,01000000,0000.23,0000.08,0000.03,-000.18,-000.02,0000.01,-000.14,-000.30,0000.16,15.8,22.4,,00.0,0638.3,30.7
2021-01-05T02:35:00Z,00000200,01000000,-000.08,0000.39,0000.33,0000.49,0000.10,0000.03,0000.02,0000.28,0000.19,15.7,22.3,,00.0,0638.3,30.7
2021-01-05T02:36:00Z,00000200,01000000,0000.49,0000.09,0000.44,-000.01,0000.15,0000.14,-000.07,-000.23,-000.05,15.7,22.3,,00.0,0638.4,30.7
2021-01-05T02:37:00Z,00000200,01000000,0000.02,0000.27,0000.20,0000.19,-000.09,0000.12,-000.09,0000.11,-000.06,15.6,22.3,,00.0,0638.4,30.7
2021-01-05T02:38:00Z,00000200,01000000,0000.26,0000.23,0000.18,0000.04,0000.11,0000.11,-000.21,-000.07,-000.19,15.5,22.2,,00.0,0638.4,30.7
2021-01-05T02:39:00Z,00000200,01000000,0000.30,0000.28,0000.24,0000.46,0000.06,0000.33,-000.03,-000.04,-000.04,15.4,22.2,,00.0,0638.4,30.7
2021-01-05T02:40:00Z,00000200,01000000,0000.59,0000.37,0000.18,0000.96,0000.02,0000.27,0000.13,0000.11,0000.20,15.4,22.2,,00.0,0638.4,30.7
2021-01-05T02:41:00Z,00000200,01000000,0000.19,0000.43,0000.43,0000.08,-000.04,-000.10,0000.19,-000.22,0000.07,15.5,22.2,,00.0,0638.4,30.7
2021-01-05T02:42:00Z,00000200,01000000,0000.67,0000.26,0000.39,0000.23,0000.26,0000.37,-000.03,0000.25,0000.20,15.5,22.2,,00.0,0638.4,30.7
2021-01-05T02:43:00Z,00000200,01000000,-000.25,0000.28,0000.31,0000.56,-000.04,0000.06,-000.06,0000.33,-000.20,15.6,22.2,,00.0,0638.5,30.7
2021-01-05T02:44:00Z,00000200,01000000,-000.06,0000.04,0000.27,0000.19,-000.03,0000.24,-000.16,-000.11,0000.22,15.6,22.2,,00.0,0638.5,30.7
2021-01-05T02:45:00Z,00000200,01000000,-000.18,0000.60,0000.39,0000.31,0000.05,-000.04,0000.22,-000.35,0000.01,15.7,22.3,,00.0,0638.4,30.7
2021-01-05T02:46:00Z,00000200,01000000,0000.79,0000.25,0000.09,0000.71,0000.26,0000.11,0000.04,0000.07,0000.19,15.7,22.3,,00.0,0638.4,30.8
2021-01-05T02:47:00Z,00000200,01000000,0000.17,-000.05,0000.23,0000.41,0000.03,0000.10,-000.11,0000.12,-000.48,15.8,22.3,,00.0,0638.4,30.8
2021-01-05T02:48:00Z,00000200,01000000,0000.16,-000.08,0000.18,0000.07,0000.44,0000.18,-000.39,-000.16,0000.03,15.8,22.3,,00.0,0638.3,30.7
2021-01-05T02:49:00Z,00000200,01000000,0000.19,0000.50,0000.22,0000.19,0000.12,0000.29,0000.27,0000.07,0000.17,15.8,22.3,,00.0,0638.3,30.7
2021-01-05T02:50:00Z,00000200,01000000,-000.28,0000.24,-000.00,0000.33,0000.09,0000.06,0000.25,0000.06,-000.29,15.7,22.3,,00.0,0638.1,30.7
2021-01-05T02:51:00Z,00000200,01000000,0000.58,0000.43,0000.29,0000.31,-000.15,0000.08,-000.19,-000.14,-000.03,15.6,22.2,,00.0,0638.1,30.7
2021-01-05T02:52:00Z,00000200,01000000,0000.21,0000.20,0000.29,0000.55,0000.29,0000.20,0000.03,-000.19,0000.08,15.5,22.2,,00.0,0638.1,30.7
2021-01-05T02:53:00Z,00000200,01000000,-000.05,0000.51,0000.04,-000.14,0000.09,0000.16,-000.05,0000.22,0000.06,15.4,22.2,,00.0,0638.0,30.7
2021-01-05T02:54:00Z,00000200,01000000,0000.30,0000.19,0000.43,0000.31,0000.06,0000.10,0000.03,-000.38,0000.13,15.4,22.1,,00.0,0638.0,30.7
2021-01-05T02:55:00Z,00000200,01000000,0000.14,0000.02,0000.07,-000.40,0000.13,0000.11,0000.45,0000.72,0000.50,15.4,22.1,,00.0,0638.0,30.7
2021-01-05T02:56:00Z,00000200,01000000,-000.16,0000.25,0000.18,0000.08,-000.17,0000.17,0000.09,0000.50,0000.04,15.4,22.1,,00.0,0637.9,30.7
2021-01-05T02:57:00Z,00000200,41000000,,,,,,,0000.93,0000.66,0000.58,15.4,22.0,,00.0,0638.0,30.7
2021-01-05T02:58:00Z,00000200,61000000,,,,,,,-000.49,-000.42,-000.11,15.1,22.3,,00.0,0637.1,30.7
2021-01-05T02:59:00Z,00000200,21000000,,,,,,,0000.05,0000.20,-000.43,15.1,22.4,,00.0,0637.1,30.7
